Simultaneous Nadir Overpasses (SNOs) Predictions

Prediction of SNOs between GOES-14 and NOAA-20 Satellite Orbit:

Table of predicted SNOs for the next 14.0 days since TLE Epoch: 12/17/2023
Index Date Time (GOES-14) GOES-14 Lat,Lon NOAA-20 Lat,Lon Distance(km) Time Diff (sec)
1 12/18/2023 20:40:15 0.06,-108.60 -0.02,-109.09 55.90 80
2 12/19/2023 20:24:09 0.06,-108.60 0.95,-104.55 460.89 80
3 12/21/2023 08:43:17 -0.07,-108.62 0.19,-109.83 137.50 80
4 12/22/2023 08:27:12 -0.06,-108.62 -0.79,-105.29 379.30 80
5 12/23/2023 20:46:28 0.07,-108.60 -0.38,-110.60 227.35 80
6 12/24/2023 20:30:23 0.06,-108.60 0.60,-106.06 289.32 80
7 12/26/2023 08:49:31 -0.06,-108.62 0.54,-111.33 309.40 80
8 12/27/2023 08:33:26 -0.05,-108.62 -0.44,-106.79 207.21 80
9 12/28/2023 20:52:42 0.06,-108.59 -0.71,-112.10 399.42 80
10 12/29/2023 20:36:36 0.06,-108.59 0.27,-107.56 117.23 80
